Regional Weather Roundup
Issued by NWS

Home | Current Version | Previous Version | Graphics & Text | Print | Product List | Glossary On
Versions: 1 2 3 4 5 6 7 8 9 10 11 12 13 14 15 16 17 18 19 20 21 22 23 24 25 26 27 28 29 30 31 32 33 34 35 36 37 38 39 40 41 42 43 44 45 46 47 48 49 50
437
ASUS44 KJAN 311410
RWRMS

MISSISSIPPI HOURLY WEATHER ROUNDUP
NATIONAL WEATHER SERVICE JACKSON MS
900 AM CDT THU JUL 31 2014

NOTE: "FAIR: INDICATES FEW OR NO CLOUDS BELOW 12,000 FEET WITH NO
SIGNIFICANT WEATHER AND/OR OBSTRUCTIONS TO VISIBILITY.

MSZ001>002-007>008-010>013-018>021-025>028-034>036-311500-
NORTHWEST MISSISSIPPI

CITY           SKY/WX    TMP DP  RH WIND       PRES   REMARKS
CLARKSDALE     CLOUDY    70  66  88 CALM      30.11S
CLEVELAND      CLOUDY    70  68  94 E3        30.08S
GREENWOOD      CLOUDY    72  66  81 CALM      30.09S
GREENVILLE     CLOUDY    71  68  90 E3        30.08S
GRENADA        CLOUDY    70  63  78 CALM      30.10S
OLIVE BRANCH   PTSUNNY   70  70 100 CALM      30.12R
OXFORD           N/A     68  64  88 CALM      30.12S
TUNICA         CLOUDY    70  64  83 CALM      30.11S
$$

MSZ003>006-009-014>017-022>024-029>033-037>039-311500-
NORTHEAST MISSISSIPPI

CITY           SKY/WX    TMP DP  RH WIND       PRES   REMARKS
BELMONT        PTSUNNY   70  64  83 CALM      30.10S
COLUMBUS AFB   CLOUDY    71  64  79 N3        30.09R
CORINTH        CLOUDY    68  64  88 CALM      30.10S
GOLDN TRIANGLE PTSUNNY   72  63  73 N6        30.10R
STARKVILLE     CLOUDY    70  64  83 CALM      30.09S
TUPELO         CLOUDY    73  63  70 CALM      30.09S
$$

MSZ040-058-311500-
CENTRAL MISSISSIPPI

CITY           SKY/WX    TMP DP  RH WIND       PRES   REMARKS
JACKSON INTL   CLOUDY    72  64  76 N3        30.09R
JACKSON HAWKNS LGT RAIN  72  63  73 CALM      30.09S
MERIDIAN KEY   CLOUDY    73  63  70 N3        30.08R
MERIDIAN NAS   CLOUDY    73  63  70 CALM      30.08R
RAYMOND        FAIR      70  64  83 CALM      30.09S
VICKSBURG      CLOUDY    72  67  84 CALM      30.08S
$$

MSZ059>079-311500-
SOUTH MISSISSIPPI

CITY           SKY/WX    TMP DP  RH WIND       PRES   REMARKS
BROOKHAVEN     FAIR      72  64  78 CALM      30.10S
COLUMBIA       FAIR      73  64  73 CALM      30.07S
HATTIESBURG    CLOUDY    71  64  78 NW5       30.08R
MCCOMB         CLOUDY    73  61  65 N5        30.08R
NATCHEZ        CLOUDY    73  63  68 E7        30.08S
PINE BELT      PTSUNNY   72  61  68 CALM      30.09R
$$

MSZ080>082-311500-
COASTAL MISSISSIPPI

CITY           SKY/WX    TMP DP  RH WIND       PRES   REMARKS
BAY ST LOUIS   PTSUNNY  N/A N/A N/A NE5       30.06R
BILOXI         MOSUNNY   76  64  65 NE3       30.05R
PASCAGOULA     MOSUNNY   74  64  71 N5        30.05R
GULFPORT       MOSUNNY   81  62  52 NE3       30.05R
$$



USA.gov is the U.S. government's official web portal to all federal, state and local government web resources and services.